Location: Seattle
(47.6064°N, 122.3308°W)
Time: 14:02:32
(UTC-08:00)

S-56A Canister/Altair - Pass Details

Date: 03 October 2022
Orbit: 638 x 2494 km, 38.9° (Epoch: 02 December)

Event Time Altitude Azimuth Distance (km) Brightness Sun altitude
Exits shadow 02:27:29 17° 106° (ESE) 2,870 10.5 -42.4°
Drops below altitude 10° 02:29:09 10° 98° (E) 3,270 10.9 -42.2°
Sets 02:31:47 0° 90° (E) 4,009 11.5 -42.0°
